14-10-2022, 00:00:07,    232,    0.0,    8.4,   0.00,   0.00, 1010.6,   90.3, -999.0
14-10-2022, 00:00:17,    231,    0.0,    8.3,   0.00,   0.00, 1010.6,   90.3, -999.0
14-10-2022, 00:00:29,    231,    0.0,    8.4,   0.00,   0.00, 1010.6,   90.4, -999.0
14-10-2022, 00:00:37,    231,    0.0,    8.4,   0.00,   0.00, 1010.6,   90.4, -999.0
14-10-2022, 00:00:47,    231,    0.0,    8.4,   0.00,   0.00, 1010.6,   90.4, -999.0
14-10-2022, 00:00:56,    231,    0.0,    8.4,   0.00,   0.00, 1010.6,   90.3, -999.0
14-10-2022, 00:01:07,    231,    0.0,    8.3,   0.00,   0.00, 1010.6,   90.3, -999.0
14-10-2022, 00:01:17,    232,    0.0,    8.4,   0.00,   0.00, 1010.6,   90.4, -999.0
14-10-2022, 00:01:26,    231,    0.0,    8.4,   0.00,   0.00, 1010.6,   90.5, -999.0
14-10-2022, 00:01:37,    231,    0.0,    8.4,   0.00,   0.00, 1010.6,   90.5, -999.0
14-10-2022, 00:01:47,    232,    0.0,    8.4,   0.00,   0.00, 1010.6,   90.6, -999.0
14-10-2022, 00:01:56,    232,    0.0,    8.4,   0.00,   0.00, 1010.6,   90.6, -999.0
14-10-2022, 00:02:06,    232,    0.0,    8.4,   0.00,   0.00, 1010.6,   90.6, -999.0
14-10-2022, 00:02:17,    231,    0.0,    8.3,   0.00,   0.00, 1010.6,   90.5, -999.0
14-10-2022, 00:02:26,    231,    0.0,    8.4,   0.00,   0.00, 1010.6,   90.4, -999.0
14-10-2022, 00:02:36,    231,    0.0,    8.2,   0.00,   0.00, 1010.6,   90.5, -999.0
14-10-2022, 00:02:46,    232,    0.0,    8.3,   0.00,   0.00, 1010.6,   90.4, -999.0
14-10-2022, 00:02:56,    231,    0.0,    8.3,   0.00,   0.00, 1010.6,   90.6, -999.0
14-10-2022, 00:03:06,    232,    0.0,    8.4,   0.00,   0.00, 1010.6,   90.6, -999.0
14-10-2022, 00:03:16,    231,    0.0,    8.4,   0.00,   0.00, 1010.6,   90.6, -999.0
14-10-2022, 00:03:26,    232,    0.0,    8.4,   0.00,   0.00, 1010.6,   90.7, -999.0
14-10-2022, 00:03:36,    231,    0.0,    8.4,   0.00,   0.00, 1010.6,   90.6, -999.0
14-10-2022, 00:03:46,    232,    0.0,    8.4,   0.00,   0.00, 1010.6,   90.6, -999.0
14-10-2022, 00:03:56,    231,    0.0,    8.4,   0.00,   0.00, 1010.6,   90.6, -999.0
14-10-2022, 00:04:05,    232,    0.0,    8.4,   0.00,   0.00, 1010.6,   90.6, -999.0
14-10-2022, 00:04:16,    231,    0.0,    8.3,   0.00,   0.00, 1010.6,   90.5, -999.0
14-10-2022, 00:04:26,    231,    0.0,    8.3,   0.00,   0.00, 1010.6,   90.5, -999.0
14-10-2022, 00:04:35,    231,    0.0,    8.3,   0.00,   0.00, 1010.6,   90.4, -999.0
14-10-2022, 00:04:45,    232,    0.0,    8.3,   0.00,   0.00, 1010.6,   90.4, -999.0
14-10-2022, 00:04:56,    232,    0.0,    8.4,   0.00,   0.00, 1010.7,   90.7, -999.0
14-10-2022, 00:05:05,    231,    0.0,    8.4,   0.00,   0.00, 1010.6,   90.7, -999.0
14-10-2022, 00:05:15,    231,    0.0,    8.3,   0.00,   0.00, 1010.6,   90.8, -999.0
14-10-2022, 00:05:25,    231,    0.0,    8.4,   0.00,   0.00, 1010.6,   90.7, -999.0
14-10-2022, 00:05:35,    231,    0.0,    8.4,   0.00,   0.00, 1010.6,   90.7, -999.0
14-10-2022, 00:05:45,    231,    0.0,    8.3,   0.00,   0.00, 1010.7,   90.6, -999.0
14-10-2022, 00:05:55,    231,    0.0,    8.4,   0.00,   0.00, 1010.7,   90.6, -999.0
14-10-2022, 00:06:05,    231,    0.0,    8.4,   0.00,   0.00, 1010.7,   90.6, -999.0
14-10-2022, 00:06:15,    231,    0.0,    8.4,   0.00,   0.00, 1010.7,   90.6, -999.0
14-10-2022, 00:06:25,    231,    0.0,    8.3,   0.00,   0.00, 1010.6,   90.6, -999.0
14-10-2022, 00:06:35,    228,    0.0,    8.3,   0.00,   0.00, 1010.6,   90.5, -999.0
14-10-2022, 00:06:45,    231,    0.0,    8.3,   0.00,   0.00, 1010.6,   90.6, -999.0
14-10-2022, 00:06:55,    231,    0.0,    8.3,   0.00,   0.00, 1010.6,   90.6, -999.0
14-10-2022, 00:07:05,    231,    0.0,    8.3,   0.00,   0.00, 1010.7,   90.8, -999.0
14-10-2022, 00:07:15,    231,    0.0,    8.3,   0.00,   0.00, 1010.7,   90.8, -999.0
14-10-2022, 00:07:25,    231,    0.0,    8.4,   0.00,   0.00, 1010.6,   90.7, -999.0
14-10-2022, 00:07:35,    231,    0.0,    8.3,   0.00,   0.00, 1010.6,   90.7, -999.0
14-10-2022, 00:07:44,    231,    0.0,    8.3,   0.00,   0.00, 1010.6,   90.7, -999.0
14-10-2022, 00:07:55,    232,    0.0,    8.3,   0.00,   0.00, 1010.6,   90.6, -999.0
14-10-2022, 00:08:05,    231,    0.0,    8.3,   0.00,   0.00, 1010.6,   90.7, -999.0
14-10-2022, 00:08:14,    232,    0.0,    8.4,   0.00,   0.00, 1010.6,   90.9, -999.0
14-10-2022, 00:08:24,    231,    0.0,    8.3,   0.00,   0.00, 1010.6,   91.0, -999.0
14-10-2022, 00:08:34,    232,    0.0,    8.4,   0.00,   0.00, 1010.6,   91.1, -999.0
14-10-2022, 00:08:44,    231,    0.0,    8.4,   0.00,   0.00, 1010.6,   90.9, -999.0
14-10-2022, 00:08:54,    231,    0.0,    8.4,   0.00,   0.00, 1010.6,   90.8, -999.0
14-10-2022, 00:09:04,    231,    0.0,    8.3,   0.00,   0.00, 1010.6,   90.7, -999.0
14-10-2022, 00:09:14,    231,    0.0,    8.4,   0.00,   0.00, 1010.6,   90.6, -999.0
14-10-2022, 00:09:24,    231,    0.0,    8.3,   0.00,   0.00, 1010.7,   90.5, -999.0
14-10-2022, 00:09:34,    231,    0.0,    8.3,   0.00,   0.00, 1010.7,   90.4, -999.0
14-10-2022, 00:09:44,    231,    0.0,    8.3,   0.00,   0.00, 1010.6,   90.4, -999.0
14-10-2022, 00:09:54,    231,    0.0,    8.3,   0.00,   0.00, 1010.7,   90.4, -999.0
14-10-2022, 00:10:04,    231,    0.0,    8.3,   0.00,   0.00, 1010.6,   90.4, -999.0
14-10-2022, 00:10:14,    231,    0.0,    8.3,   0.00,   0.00, 1010.6,   90.4, -999.0
14-10-2022, 00:10:24,    231,    0.0,    8.3,   0.00,   0.00, 1010.7,   90.4, -999.0
14-10-2022, 00:10:34,    231,    0.0,    8.3,   0.00,   0.00, 1010.7,   90.6, -999.0
14-10-2022, 00:10:44,    231,    0.0,    8.3,   0.00,   0.00, 1010.6,   90.6, -999.0
14-10-2022, 00:10:53,    231,    0.0,    8.3,   0.00,   0.00, 1010.6,   90.8, -999.0
14-10-2022, 00:11:04,    231,    0.0,    8.3,   0.00,   0.00, 1010.6,   90.9, -999.0
14-10-2022, 00:11:13,    231,    0.0,    8.4,   0.00,   0.00, 1010.7,   90.9, -999.0
14-10-2022, 00:11:23,    231,    0.0,    8.3,   0.00,   0.00, 1010.7,   90.9, -999.0
14-10-2022, 00:11:33,    232,    0.0,    8.4,   0.00,   0.00, 1010.7,   91.0, -999.0
14-10-2022, 00:11:43,    231,    0.0,    8.4,   0.00,   0.00, 1010.7,   91.0, -999.0
14-10-2022, 00:11:53,    231,    0.0,    8.4,   0.00,   0.00, 1010.7,   90.9, -999.0
14-10-2022, 00:12:03,    231,    0.0,    8.3,   0.00,   0.00, 1010.7,   90.8, -999.0
14-10-2022, 00:12:13,    231,    0.0,    8.3,   0.00,   0.00, 1010.7,   90.8, -999.0
14-10-2022, 00:12:23,    231,    0.0,    8.3,   0.00,   0.00, 1010.7,   90.8, -999.0
14-10-2022, 00:12:33,    231,    0.0,    8.3,   0.00,   0.00, 1010.7,   90.8, -999.0
14-10-2022, 00:12:43,    232,    0.0,    8.3,   0.00,   0.00, 1010.6,   90.8, -999.0
14-10-2022, 00:12:53,    231,    0.0,    8.3,   0.00,   0.00, 1010.6,   90.8, -999.0
14-10-2022, 00:13:03,    231,    0.0,    8.3,   0.00,   0.00, 1010.7,   91.1, -999.0
14-10-2022, 00:13:13,    231,    0.0,    8.3,   0.00,   0.00, 1010.6,   91.1, -999.0
14-10-2022, 00:13:23,    231,    0.0,    8.4,   0.00,   0.00, 1010.7,   91.0, -999.0
14-10-2022, 00:13:33,    231,    0.0,    8.3,   0.00,   0.00, 1010.6,   90.9, -999.0
14-10-2022, 00:13:43,    231,    0.0,    8.2,   0.00,   0.00, 1010.7,   90.9, -999.0
14-10-2022, 00:13:53,    232,    0.0,    8.3,   0.00,   0.00, 1010.7,   91.0, -999.0
14-10-2022, 00:14:02,    231,    0.0,    8.2,   0.00,   0.00, 1010.7,   91.0, -999.0
14-10-2022, 00:14:13,    232,    0.0,    8.3,   0.00,   0.00, 1010.6,   90.9, -999.0
14-10-2022, 00:14:22,    231,    0.0,    8.4,   0.00,   0.00, 1010.7,   90.9, -999.0
14-10-2022, 00:14:32,    231,    0.0,    8.3,   0.00,   0.00, 1010.6,   90.9, -999.0
14-10-2022, 00:14:42,    231,    0.0,    8.3,   0.00,   0.00, 1010.6,   90.8, -999.0
14-10-2022, 00:14:52,    231,    0.0,    8.4,   0.00,   0.00, 1010.6,   90.9, -999.0
14-10-2022, 00:15:02,    231,    0.0,    8.3,   0.00,   0.00, 1010.7,   90.8, -999.0
14-10-2022, 00:15:12,    231,    0.0,    8.3,   0.00,   0.00, 1010.6,   90.8, -999.0
14-10-2022, 00:15:22,    232,    0.0,    8.3,   0.00,   0.00, 1010.6,   90.7, -999.0
14-10-2022, 00:15:32,    231,    0.0,    8.3,   0.00,   0.00, 1010.6,   90.7, -999.0
14-10-2022, 00:15:42,    231,    0.0,    8.3,   0.00,   0.00, 1010.6,   90.8, -999.0
14-10-2022, 00:15:52,    231,    0.0,    8.3,   0.00,   0.00, 1010.6,   90.9, -999.0
14-10-2022, 00:16:02,    231,    0.0,    8.4,   0.00,   0.00, 1010.6,   91.0, -999.0
14-10-2022, 00:16:12,    231,    0.0,    8.4,   0.00,   0.00, 1010.6,   91.0, -999.0
14-10-2022, 00:16:22,    231,    0.0,    8.4,   0.00,   0.00, 1010.6,   91.1, -999.0
14-10-2022, 00:16:32,    231,    0.0,    8.3,   0.00,   0.00, 1010.6,   91.0, -999.0
14-10-2022, 00:16:42,    231,    0.0,    8.3,   0.00,   0.00, 1010.6,   91.1, -999.0
14-10-2022, 00:16:52,    232,    0.0,    8.3,   0.00,   0.00, 1010.6,   91.1, -999.0
14-10-2022, 00:17:02,    231,    0.0,    8.4,   0.00,   0.00, 1010.6,   91.1, -999.0
14-10-2022, 00:17:11,    231,    0.0,    8.4,   0.00,   0.00, 1010.6,   91.1, -999.0
14-10-2022, 00:17:22,    232,    0.0,    8.3,   0.00,   0.00, 1010.6,   91.1, -999.0
14-10-2022, 00:17:32,    231,    0.0,    8.4,   0.00,   0.00, 1010.5,   91.1, -999.0
14-10-2022, 00:17:41,    231,    0.0,    8.4,   0.00,   0.00, 1010.6,   91.0, -999.0
14-10-2022, 00:17:51,    231,    0.0,    8.4,   0.00,   0.00, 1010.6,   91.0, -999.0
14-10-2022, 00:18:01,    231,    0.0,    8.4,   0.00,   0.00, 1010.6,   90.9, -999.0
14-10-2022, 00:18:11,    231,    0.0,    8.4,   0.00,   0.00, 1010.6,   91.0, -999.0
14-10-2022, 00:18:21,    231,    0.0,    8.4,   0.00,   0.00, 1010.6,   91.0, -999.0
14-10-2022, 00:18:31,    231,    0.0,    8.4,   0.00,   0.00, 1010.6,   91.1, -999.0
14-10-2022, 00:18:41,    231,    0.0,    8.4,   0.00,   0.00, 1010.5,   91.1, -999.0
14-10-2022, 00:18:51,    229,    0.0,    8.4,   0.00,   0.00, 1010.5,   91.3, -999.0
14-10-2022, 00:19:01,    232,    0.0,    8.4,   0.00,   0.00, 1010.6,   91.2, -999.0
14-10-2022, 00:19:11,    232,    0.0,    8.4,   0.00,   0.00, 1010.5,   91.2, -999.0
14-10-2022, 00:19:21,    231,    0.0,    8.4,   0.00,   0.00, 1010.6,   91.1, -999.0
14-10-2022, 00:19:31,    231,    0.0,    8.5,   0.00,   0.00, 1010.5,   91.1, -999.0
14-10-2022, 00:19:41,    231,    0.0,    8.4,   0.00,   0.00, 1010.5,   91.1, -999.0
14-10-2022, 00:19:51,    231,    0.0,    8.5,   0.00,   0.00, 1010.5,   90.9, -999.0
14-10-2022, 00:20:01,    231,    0.0,    8.4,   0.00,   0.00, 1010.5,   90.8, -999.0
14-10-2022, 00:20:11,    231,    0.0,    8.5,   0.00,   0.00, 1010.5,   90.8, -999.0
14-10-2022, 00:20:20,    232,    0.0,    8.4,   0.00,   0.00, 1010.5,   90.8, -999.0
14-10-2022, 00:20:31,    231,    0.0,    8.5,   0.00,   0.00, 1010.5,   90.7, -999.0
14-10-2022, 00:20:40,    231,    0.0,    8.5,   0.00,   0.00, 1010.5,   90.7, -999.0
14-10-2022, 00:20:50,    231,    0.0,    8.5,   0.00,   0.00, 1010.5,   90.7, -999.0
14-10-2022, 00:21:00,    231,    0.0,    8.5,   0.00,   0.00, 1010.5,   90.6, -999.0
14-10-2022, 00:21:10,    231,    0.0,    8.4,   0.00,   0.00, 1010.5,   90.6, -999.0
14-10-2022, 00:21:20,    231,    0.0,    8.5,   0.00,   0.00, 1010.5,   90.5, -999.0
14-10-2022, 00:21:30,    231,    0.0,    8.5,   0.00,   0.00, 1010.5,   90.5, -999.0
14-10-2022, 00:21:40,    231,    0.0,    8.5,   0.00,   0.00, 1010.5,   90.4, -999.0
14-10-2022, 00:21:50,    231,    0.0,    8.5,   0.00,   0.00, 1010.5,   90.3, -999.0
14-10-2022, 00:22:00,    231,    0.0,    8.5,   0.00,   0.00, 1010.5,   90.2, -999.0
14-10-2022, 00:22:10,    231,    0.0,    8.5,   0.00,   0.00, 1010.5,   90.3, -999.0
14-10-2022, 00:22:20,    231,    0.0,    8.5,   0.00,   0.00, 1010.5,   90.3, -999.0
14-10-2022, 00:22:30,    231,    0.0,    8.5,   0.00,   0.00, 1010.5,   90.3, -999.0
14-10-2022, 00:22:40,    231,    0.0,    8.5,   0.00,   0.00, 1010.5,   90.3, -999.0
14-10-2022, 00:22:50,    231,    0.0,    8.5,   0.00,   0.00, 1010.5,   90.3, -999.0
14-10-2022, 00:23:00,    232,    0.0,    8.6,   0.00,   0.00, 1010.5,   90.3, -999.0
14-10-2022, 00:23:10,    231,    0.0,    8.5,   0.00,   0.00, 1010.5,   90.3, -999.0
14-10-2022, 00:23:20,    231,    0.0,    8.5,   0.00,   0.00, 1010.5,   90.3, -999.0
14-10-2022, 00:23:29,    231,    0.0,    8.6,   0.00,   0.00, 1010.5,   90.2, -999.0
14-10-2022, 00:23:40,    231,    0.0,    8.5,   0.00,   0.00, 1010.5,   90.1, -999.0
14-10-2022, 00:23:49,    231,    0.0,    8.6,   0.00,   0.00, 1010.5,   90.0, -999.0
14-10-2022, 00:23:59,    232,    0.0,    8.5,   0.00,   0.00, 1010.5,   89.9, -999.0
14-10-2022, 00:24:09,    231,    0.0,    8.5,   0.00,   0.00, 1010.5,   89.9, -999.0
14-10-2022, 00:24:19,    231,    0.0,    8.5,   0.00,   0.00, 1010.5,   89.8, -999.0
14-10-2022, 00:24:29,    231,    0.0,    8.5,   0.00,   0.00, 1010.5,   89.8, -999.0
14-10-2022, 00:24:39,    231,    0.0,    8.6,   0.00,   0.00, 1010.5,   89.8, -999.0
14-10-2022, 00:24:49,    231,    0.0,    8.5,   0.00,   0.00, 1010.5,   89.8, -999.0
14-10-2022, 00:24:59,    231,    0.0,    8.6,   0.00,   0.00, 1010.5,   89.7, -999.0
14-10-2022, 00:25:09,    231,    0.0,    8.5,   0.00,   0.00, 1010.6,   89.6, -999.0
14-10-2022, 00:25:19,    232,    0.0,    8.5,   0.00,   0.00, 1010.5,   89.6, -999.0
14-10-2022, 00:25:29,    231,    0.0,    8.5,   0.00,   0.00, 1010.6,   89.5, -999.0
14-10-2022, 00:25:39,    231,    0.0,    8.5,   0.00,   0.00, 1010.5,   89.6, -999.0
14-10-2022, 00:25:49,    231,    0.0,    8.5,   0.00,   0.00, 1010.5,   89.5, -999.0
14-10-2022, 00:25:59,    231,    0.0,    8.6,   0.00,   0.00, 1010.5,   89.5, -999.0
14-10-2022, 00:26:09,    231,    0.0,    8.5,   0.00,   0.00, 1010.6,   89.4, -999.0
14-10-2022, 00:26:19,    231,    0.0,    8.4,   0.00,   0.00, 1010.5,   89.3, -999.0
14-10-2022, 00:26:29,    231,    0.0,    8.5,   0.00,   0.00, 1010.5,   89.3, -999.0
14-10-2022, 00:26:39,    231,    0.0,    8.5,   0.00,   0.00, 1010.5,   89.3, -999.0
14-10-2022, 00:26:48,    231,    0.0,    8.5,   0.00,   0.00, 1010.5,   89.3, -999.0
14-10-2022, 00:26:58,    231,    0.0,    8.6,   0.00,   0.00, 1010.5,   89.2, -999.0
14-10-2022, 00:27:09,    232,    0.0,    8.5,   0.00,   0.00, 1010.6,   89.3, -999.0
14-10-2022, 00:27:18,    232,    0.0,    8.6,   0.00,   0.00, 1010.6,   89.3, -999.0
14-10-2022, 00:27:28,    231,    0.0,    8.6,   0.00,   0.00, 1010.6,   89.2, -999.0
14-10-2022, 00:27:38,    231,    0.0,    8.6,   0.00,   0.00, 1010.6,   89.3, -999.0
14-10-2022, 00:27:48,    232,    0.0,    8.6,   0.00,   0.00, 1010.6,   89.2, -999.0
14-10-2022, 00:27:58,    231,    0.0,    8.6,   0.00,   0.00, 1010.6,   89.2, -999.0
14-10-2022, 00:28:08,    231,    0.0,    8.5,   0.00,   0.00, 1010.6,   89.3, -999.0
14-10-2022, 00:28:18,    232,    0.0,    8.5,   0.00,   0.00, 1010.6,   89.2, -999.0
14-10-2022, 00:28:28,    232,    0.0,    8.5,   0.00,   0.00, 1010.6,   89.1, -999.0
14-10-2022, 00:28:38,    231,    0.0,    8.6,   0.00,   0.00, 1010.6,   89.1, -999.0
14-10-2022, 00:28:48,    231,    0.0,    8.5,   0.00,   0.00, 1010.6,   89.1, -999.0
14-10-2022, 00:28:58,    231,    0.0,    8.5,   0.00,   0.00, 1010.6,   89.1, -999.0
14-10-2022, 00:29:08,    231,    0.0,    8.5,   0.00,   0.00, 1010.6,   89.0, -999.0
14-10-2022, 00:29:18,    231,    0.0,    8.6,   0.00,   0.00, 1010.6,   89.1, -999.0
14-10-2022, 00:29:28,    231,    0.0,    8.6,   0.00,   0.00, 1010.6,   89.1, -999.0
14-10-2022, 00:29:38,    232,    0.0,    8.6,   0.00,   0.00, 1010.6,   89.2, -999.0
14-10-2022, 00:29:48,    231,    0.0,    8.6,   0.00,   0.00, 1010.6,   89.2, -999.0
14-10-2022, 00:29:57,    231,    0.0,    8.5,   0.00,   0.00, 1010.6,   89.1, -999.0
14-10-2022, 00:30:07,    231,    0.0,    8.5,   0.00,   0.00, 1010.6,   89.1, -999.0
14-10-2022, 00:30:18,    231,    0.0,    8.5,   0.00,   0.00, 1010.6,   89.1, -999.0
14-10-2022, 00:30:27,    231,    0.0,    8.5,   0.00,   0.00, 1010.6,   88.9, -999.0
14-10-2022, 00:30:37,    231,    0.0,    8.5,   0.00,   0.00, 1010.6,   89.0, -999.0
14-10-2022, 00:30:47,    231,    0.0,    8.5,   0.00,   0.00, 1010.6,   89.0, -999.0
14-10-2022, 00:30:57,    231,    0.0,    8.5,   0.00,   0.00, 1010.6,   89.0, -999.0
14-10-2022, 00:31:07,    231,    0.0,    8.5,   0.00,   0.00, 1010.6,   89.1, -999.0
14-10-2022, 00:31:17,    231,    0.0,    8.5,   0.00,   0.00, 1010.6,   89.0, -999.0
14-10-2022, 00:31:27,    232,    0.0,    8.5,   0.00,   0.00, 1010.6,   89.0, -999.0
14-10-2022, 00:31:37,    232,    0.0,    8.5,   0.00,   0.00, 1010.6,   89.0, -999.0
14-10-2022, 00:31:47,    231,    0.0,    8.5,   0.00,   0.00, 1010.6,   89.0, -999.0
14-10-2022, 00:31:57,    231,    0.0,    8.4,   0.00,   0.00, 1010.6,   89.0, -999.0
14-10-2022, 00:32:07,    231,    0.0,    8.4,   0.00,   0.00, 1010.6,   89.0, -999.0
14-10-2022, 00:32:17,    231,    0.0,    8.5,   0.00,   0.00, 1010.6,   88.9, -999.0
14-10-2022, 00:32:27,    232,    0.0,    8.4,   0.00,   0.00, 1010.6,   89.1, -999.0
14-10-2022, 00:32:36,    231,    0.0,    8.5,   0.00,   0.00, 1010.6,   89.1, -999.0
14-10-2022, 00:32:47,    231,    0.0,    8.5,   0.00,   0.00, 1010.6,   89.1, -999.0
14-10-2022, 00:32:57,    231,    0.0,    8.4,   0.00,   0.00, 1010.6,   89.1, -999.0
14-10-2022, 00:33:06,    231,    0.0,    8.4,   0.00,   0.00, 1010.6,   89.1, -999.0
14-10-2022, 00:33:16,    231,    0.0,    8.4,   0.00,   0.00, 1010.6,   89.2, -999.0
14-10-2022, 00:33:27,    231,    0.0,    8.4,   0.00,   0.00, 1010.6,   89.2, -999.0
14-10-2022, 00:33:36,    231,    0.0,    8.4,   0.00,   0.00, 1010.6,   89.2, -999.0
14-10-2022, 00:33:46,    231,    0.0,    8.4,   0.00,   0.00, 1010.6,   89.1, -999.0
14-10-2022, 00:33:56,    231,    0.0,    8.4,   0.00,   0.00, 1010.6,   89.2, -999.0
14-10-2022, 00:34:06,    231,    0.0,    8.4,   0.00,   0.00, 1010.6,   89.3, -999.0
14-10-2022, 00:34:16,    231,    0.0,    8.4,   0.00,   0.00, 1010.6,   89.3, -999.0
14-10-2022, 00:34:26,    231,    0.0,    8.4,   0.00,   0.00, 1010.6,   89.2, -999.0
14-10-2022, 00:34:36,    231,    0.0,    8.4,   0.00,   0.00, 1010.6,   89.3, -999.0
14-10-2022, 00:34:46,    231,    0.0,    8.4,   0.00,   0.00, 1010.6,   89.3, -999.0
14-10-2022, 00:34:56,    231,    0.0,    8.4,   0.00,   0.00, 1010.6,   89.3, -999.0
14-10-2022, 00:35:06,    231,    0.0,    8.4,   0.00,   0.00, 1010.6,   89.3, -999.0
14-10-2022, 00:35:16,    231,    0.0,    8.5,   0.00,   0.00, 1010.6,   89.4, -999.0
14-10-2022, 00:35:26,    231,    0.0,    8.3,   0.00,   0.00, 1010.6,   89.3, -999.0
14-10-2022, 00:35:36,    231,    0.0,    8.4,   0.00,   0.00, 1010.6,   89.3, -999.0
14-10-2022, 00:35:45,    232,    0.0,    8.4,   0.00,   0.00, 1010.6,   89.3, -999.0
14-10-2022, 00:35:56,    232,    0.0,    8.4,   0.00,   0.00, 1010.5,   89.3, -999.0
14-10-2022, 00:36:06,    231,    0.0,    8.4,   0.00,   0.00, 1010.6,   89.3, -999.0
14-10-2022, 00:36:15,    231,    0.0,    8.4,   0.00,   0.00, 1010.5,   89.3, -999.0
14-10-2022, 00:36:25,    231,    0.0,    8.4,   0.00,   0.00, 1010.5,   89.3, -999.0
14-10-2022, 00:36:36,    231,    0.0,    8.3,   0.00,   0.00, 1010.5,   89.3, -999.0
14-10-2022, 00:36:45,    232,    0.0,    8.3,   0.00,   0.00, 1010.5,   89.3, -999.0
14-10-2022, 00:36:55,    231,    0.0,    8.3,   0.00,   0.00, 1010.4,   89.3, -999.0
14-10-2022, 00:37:05,    231,    0.0,    8.4,   0.00,   0.00, 1010.5,   89.3, -999.0
14-10-2022, 00:37:15,    231,    0.0,    8.4,   0.00,   0.00, 1010.5,   89.3, -999.0
14-10-2022, 00:37:25,    231,    0.0,    8.4,   0.00,   0.00, 1010.5,   89.4, -999.0
14-10-2022, 00:37:35,    231,    0.0,    8.4,   0.00,   0.00, 1010.5,   89.4, -999.0
14-10-2022, 00:37:45,    232,    0.0,    8.4,   0.00,   0.00, 1010.5,   89.5, -999.0
14-10-2022, 00:37:55,    231,    0.0,    8.3,   0.00,   0.00, 1010.5,   89.5, -999.0
14-10-2022, 00:38:05,    231,    0.0,    8.3,   0.00,   0.00, 1010.5,   89.5, -999.0
14-10-2022, 00:38:15,    231,    0.0,    8.4,   0.00,   0.00, 1010.4,   89.6, -999.0
14-10-2022, 00:38:25,    231,    0.0,    8.3,   0.00,   0.00, 1010.4,   89.7, -999.0
14-10-2022, 00:38:35,    231,    0.0,    8.3,   0.00,   0.00, 1010.5,   89.6, -999.0
14-10-2022, 00:38:45,    231,    0.0,    8.3,   0.00,   0.00, 1010.5,   89.6, -999.0
14-10-2022, 00:38:55,    232,    0.0,    8.4,   0.00,   0.00, 1010.5,   89.6, -999.0
14-10-2022, 00:39:05,    231,    0.0,    8.4,   0.00,   0.00, 1010.5,   89.6, -999.0
14-10-2022, 00:39:14,    231,    0.0,    8.4,   0.00,   0.00, 1010.4,   89.6, -999.0
14-10-2022, 00:39:25,    231,    0.0,    8.4,   0.00,   0.00, 1010.4,   89.6, -999.0
14-10-2022, 00:39:34,    231,    0.0,    8.3,   0.00,   0.00, 1010.4,   89.6, -999.0
14-10-2022, 00:39:44,    232,    0.0,    8.4,   0.00,   0.00, 1010.4,   89.7, -999.0
14-10-2022, 00:39:54,    231,    0.0,    8.4,   0.00,   0.00, 1010.4,   89.6, -999.0
14-10-2022, 00:40:04,    231,    0.0,    8.4,   0.00,   0.00, 1010.4,   89.6, -999.0
14-10-2022, 00:40:14,    231,    0.0,    8.4,   0.00,   0.00, 1010.4,   89.6, -999.0
14-10-2022, 00:40:24,    231,    0.0,    8.4,   0.00,   0.00, 1010.4,   89.7, -999.0
14-10-2022, 00:40:34,    231,    0.0,    8.4,   0.00,   0.00, 1010.4,   89.7, -999.0
14-10-2022, 00:40:44,    231,    0.0,    8.4,   0.00,   0.00, 1010.4,   89.7, -999.0
14-10-2022, 00:40:54,    232,    0.0,    8.4,   0.00,   0.00, 1010.4,   89.7, -999.0
14-10-2022, 00:41:04,    231,    0.0,    8.4,   0.00,   0.00, 1010.4,   89.7, -999.0
14-10-2022, 00:41:14,    231,    0.0,    8.4,   0.00,   0.00, 1010.4,   89.7, -999.0
14-10-2022, 00:41:24,    232,    0.0,    8.3,   0.00,   0.00, 1010.4,   89.7, -999.0
14-10-2022, 00:41:34,    231,    0.0,    8.4,   0.00,   0.00, 1010.4,   89.8, -999.0
14-10-2022, 00:41:44,    231,    0.0,    8.4,   0.00,   0.00, 1010.4,   89.7, -999.0
14-10-2022, 00:41:54,    231,    0.0,    8.4,   0.00,   0.00, 1010.4,   89.7, -999.0
14-10-2022, 00:42:04,    231,    0.0,    8.4,   0.00,   0.00, 1010.4,   89.7, -999.0
14-10-2022, 00:42:13,    231,    0.0,    8.3,   0.00,   0.00, 1010.3,   89.8, -999.0
14-10-2022, 00:42:24,    231,    0.0,    8.4,   0.00,   0.00, 1010.4,   89.7, -999.0
14-10-2022, 00:42:34,    231,    0.0,    8.3,   0.00,   0.00, 1010.4,   89.7, -999.0
14-10-2022, 00:42:43,    232,    0.0,    8.4,   0.00,   0.00, 1010.4,   89.7, -999.0
14-10-2022, 00:42:53,    232,    0.0,    8.4,   0.00,   0.00, 1010.4,   89.6, -999.0
14-10-2022, 00:43:04,    231,    0.0,    8.4,   0.00,   0.00, 1010.4,   89.6, -999.0
14-10-2022, 00:43:13,    232,    0.0,    8.3,   0.00,   0.00, 1010.3,   89.7, -999.0
14-10-2022, 00:43:23,    231,    0.0,    8.4,   0.00,   0.00, 1010.4,   89.7, -999.0
14-10-2022, 00:43:33,    231,    0.0,    8.4,   0.00,   0.00, 1010.4,   89.7, -999.0
14-10-2022, 00:43:43,    231,    0.0,    8.4,   0.00,   0.00, 1010.4,   89.6, -999.0
14-10-2022, 00:43:53,    231,    0.0,    8.3,   0.00,   0.00, 1010.4,   89.7, -999.0
14-10-2022, 00:44:03,    231,    0.0,    8.4,   0.00,   0.00, 1010.4,   89.7, -999.0
14-10-2022, 00:44:13,    231,    0.0,    8.4,   0.00,   0.00, 1010.4,   89.8, -999.0
14-10-2022, 00:44:23,    231,    0.0,    8.3,   0.00,   0.00, 1010.4,   89.7, -999.0
14-10-2022, 00:44:33,    231,    0.0,    8.4,   0.00,   0.00, 1010.4,   89.8, -999.0
14-10-2022, 00:44:43,    231,    0.0,    8.4,   0.00,   0.00, 1010.4,   89.8, -999.0
14-10-2022, 00:44:53,    231,    0.0,    8.4,   0.00,   0.00, 1010.4,   89.8, -999.0
14-10-2022, 00:45:03,    231,    0.0,    8.4,   0.00,   0.00, 1010.4,   89.8, -999.0
14-10-2022, 00:45:13,    231,    0.0,    8.4,   0.00,   0.00, 1010.4,   89.8, -999.0
14-10-2022, 00:45:22,    231,    0.0,    8.4,   0.00,   0.00, 1010.4,   89.7, -999.0
14-10-2022, 00:45:33,    231,    0.0,    8.4,   0.00,   0.00, 1010.4,   89.8, -999.0
14-10-2022, 00:45:43,    231,    0.0,    8.4,   0.00,   0.00, 1010.4,   89.8, -999.0
14-10-2022, 00:45:52,    232,    0.0,    8.4,   0.00,   0.00, 1010.4,   89.7, -999.0
14-10-2022, 00:46:02,    231,    0.0,    8.4,   0.00,   0.00, 1010.4,   89.9, -999.0
14-10-2022, 00:46:13,    232,    0.0,    8.4,   0.00,   0.00, 1010.4,   89.8, -999.0
14-10-2022, 00:46:22,    231,    0.0,    8.4,   0.00,   0.00, 1010.4,   89.8, -999.0
14-10-2022, 00:46:32,    232,    0.0,    8.4,   0.00,   0.00, 1010.4,   89.8, -999.0
14-10-2022, 00:46:42,    231,    0.0,    8.3,   0.00,   0.00, 1010.4,   89.9, -999.0